Weather in Mielec

Poland     50°17′45″N   21°25′20″E
temp.,
°C
wind,
m/s
gust,
m/s
humid.,
%
clouds,
%
prec.,
mm/h
press.,
hPa
HPBL,
m
5 august, thu
thu523:00+16ne2388100 0.0 101476
02:00+14ene249545 0.0 101393
05:00+15ene2694100 0.5 1012208
08:00+15ne3797100 3.8 1010263
11:00+16ene4795100 0.2 1010330
14:00+20ene5778100 0.2 1007576
17:00+17ne51097100 4.1 1005432
20:00+16nne51099100 34.0 1003415
6 august, fri
fri623:00+16n51098100 4.4 1002383
02:00+16w4698100 4.5 1002419
05:00+15w4698100 0.0 1003384
08:00+15wsw4898100 0.2 1004379
11:00+15w589698 1.5 1005545
14:00+16wnw5888100 2.3 1007794
17:00+14wnw4891100 0.3 1008546
20:00+13wsw22920 0.3 100944
7 august, sat
sat723:00+12ssw22920 0.0 101033
02:00+12ssw33930 0.0 101055
05:00+12ssw34922 0.0 101167
08:00+17sw35755 0.0 1011246
11:00+23wsw45580 0.0 10111196
14:00+25wsw454824 0.0 10111950
17:00+26wsw2347100 0.0 10101651
20:00+20ese3372100 0.0 101141
8 august, sun
sun823:00+18se38695 0.0 1011120
02:00+18sse411668 0.0 1010232
05:00+19sse514589 0.0 1010336
08:00+22s61655100 0.0 1010494
11:00+26w67486 0.0 10121291
14:00+26wnw455348 0.0 10131567
17:00+25nw3356100 0.0 10141180
20:00+21n227399 0.0 101526
9 august, mon
mon923:00+18wsw1184100 0.9 101612
02:00+18wsw2286100 1.3 101629
05:00+16nw3894100 0.5 1018390
08:00+16w359586 3.3 1020308
11:00+21w346349 0.0 10201241
14:00+24wnw344910 0.1 10201855
17:00+24nw3446100 0.0 10191930
20:00+19n2363100 0.0 102042